User: anonymous   Login
Location: Unspecified
(0.0000°N, 0.0000°E)
Time: 19:11:57
(UTC+00:00)
Language:

MUOS 2 - Orbit

View from above orbital plane
View from above orbital plane
View from above satellite
View from above satellite

Ground track
Ground track

The orbit data is extracted from the following two-line orbital elements,

1 39206U 13036A   19083.14442016 -.00000151  00000-0  00000+0 0  9993
2 39206   2.9629 344.4996 0057894   1.3636 147.4624  1.00272826 20818
Epoch (UTC): 24 March 2019 03:27:57
Eccentricity: 0.0057894
inclination: 2.9629°
perigee height: 35542 km
apogee height: 36030 km
right ascension of ascending node: 344.4996°
argument of perigee: 1.3636°
revolutions per day: 1.00272826
mean anomaly at epoch: 147.4624°
orbit number at epoch: 2081

The dashed part of the orbit path shows where the satellite is in the earth's shadow,  

DLR